• In Deutschland
  • Länderverzeichnis
  • Für 7 Tage
  • Wassertemperatur
  • Satellitenkarten
  • Wetterkarte
  • Widgets
  • user-avatar
    Anmelden

    Stündliche Wetter Poti

    Heute, 16 Oktober, Dienstag

    Zeit Temperatur Niederschläge Wind Luftdruck Luftfeuchtigkeit
    00:00 +19°C° 0 mm 3 m/S 766 mmHg 62%
    01:00 +19°C° 0 mm 3 m/S 766 mmHg 60%
    02:00 +19°C° 0 mm 3 m/S 766 mmHg 58%
    03:00 +19°C° 0 mm 3 m/S 766 mmHg 56%
    04:00 +19°C° 0 mm 3 m/S 766 mmHg 55%
    05:00 +18°C° 0 mm 3 m/S 766 mmHg 54%
    06:00 +18°C° 0 mm 3 m/S 766 mmHg 52%
    07:00 +20°C° 0 mm 3 m/S 766 mmHg 50%
    08:00 +22°C° 0 mm 3 m/S 765 mmHg 47%
    09:00 +25°C° 0 mm 3 m/S 765 mmHg 44%
    10:00 +27°C° 0 mm 3 m/S 765 mmHg 41%
    11:00 +28°C° 0 mm 2 m/S 765 mmHg 38%
    12:00 +30°C° 0 mm 2 m/S 765 mmHg 35%
    13:00 +30°C° 0 mm 2 m/S 764 mmHg 36%
    14:00 +30°C° 0 mm 2 m/S 764 mmHg 37%
    15:00 +30°C° 0 mm 2 m/S 764 mmHg 38%
    16:00 +28°C° 0 mm 2 m/S 764 mmHg 45%
    17:00 +26°C° 0 mm 2 m/S 764 mmHg 51%
    18:00 +22°C° 0 mm 3 m/S 764 mmHg 58%
    19:00 +23°C° 0 mm 2 m/S 764 mmHg 58%
    20:00 +21°C° 0 mm 2 m/S 765 mmHg 59%
    21:00 +21°C° 0 mm 2 m/S 765 mmHg 59%
    22:00 +21°C° 0 mm 2 m/S 765 mmHg 57%
    23:00 +20°C° 0 mm 2 m/S 765 mmHg 56%

    Morgen, 17 Oktober, Mittwoch

    Zeit Temperatur Niederschläge Wind Luftdruck Luftfeuchtigkeit
    00:00 +20°C° 0 mm 2 m/S 765 mmHg 55%
    01:00 +20°C° 0 mm 3 m/S 765 mmHg 54%
    02:00 +20°C° 0 mm 3 m/S 765 mmHg 53%
    03:00 +20°C° 0 mm 3 m/S 765 mmHg 52%
    04:00 +20°C° 0 mm 4 m/S 765 mmHg 52%
    05:00 +19°C° 0 mm 4 m/S 764 mmHg 51%
    06:00 +19°C° 0 mm 4 m/S 764 mmHg 51%
    07:00 +21°C° 0 mm 4 m/S 764 mmHg 49%
    08:00 +23°C° 0 mm 4 m/S 764 mmHg 46%
    09:00 +26°C° 0 mm 4 m/S 764 mmHg 44%
    10:00 +27°C° 0 mm 4 m/S 764 mmHg 40%
    11:00 +29°C° 0 mm 3 m/S 763 mmHg 36%
    12:00 +30°C° 0 mm 3 m/S 763 mmHg 32%
    13:00 +30°C° 0 mm 2 m/S 763 mmHg 33%
    14:00 +30°C° 0 mm 2 m/S 763 mmHg 34%
    15:00 +30°C° 0 mm 1 m/S 762 mmHg 35%
    16:00 +28°C° 0 mm 2 m/S 762 mmHg 41%
    17:00 +26°C° 0 mm 2 m/S 763 mmHg 46%
    18:00 +24°C° 0 mm 2 m/S 763 mmHg 52%
    19:00 +23°C° 0 mm 2 m/S 763 mmHg 51%
    20:00 +23°C° 0 mm 2 m/S 763 mmHg 50%
    21:00 +21°C° 0 mm 2 m/S 763 mmHg 50%
    22:00 +21°C° 0 mm 3 m/S 763 mmHg 48%
    23:00 +21°C° 0 mm 3 m/S 763 mmHg 47%

    übermorgen, 18 Oktober, Donnerstag

    Zeit Temperatur Niederschläge Wind Luftdruck Luftfeuchtigkeit
    00:00 +20°C° 0 mm 3 m/S 763 mmHg 45%
    01:00 +20°C° 0 mm 3 m/S 763 mmHg 45%
    02:00 +20°C° 0 mm 3 m/S 763 mmHg 44%
    03:00 +20°C° 0 mm 3 m/S 763 mmHg 44%
    04:00 +19°C° 0 mm 3 m/S 763 mmHg 44%
    05:00 +19°C° 0 mm 3 m/S 763 mmHg 44%
    06:00 +19°C° 0 mm 3 m/S 763 mmHg 44%
    07:00 +21°C° 0 mm 3 m/S 763 mmHg 42%
    08:00 +24°C° 0 mm 3 m/S 763 mmHg 41%
    09:00 +26°C° 0 mm 3 m/S 763 mmHg 40%
    10:00 +28°C° 0 mm 3 m/S 763 mmHg 36%
    11:00 +29°C° 0 mm 2 m/S 762 mmHg 32%
    12:00 +31°C° 0 mm 2 m/S 762 mmHg 28%
    13:00 +31°C° 0 mm 2 m/S 762 mmHg 29%
    14:00 +31°C° 0 mm 2 m/S 762 mmHg 30%
    15:00 +31°C° 0 mm 1 m/S 761 mmHg 31%
    16:00 +29°C° 0 mm 2 m/S 762 mmHg 36%
    17:00 +26°C° 0 mm 2 m/S 762 mmHg 41%
    18:00 +24°C° 0 mm 2 m/S 762 mmHg 46%
    19:00 +23°C° 0 mm 2 m/S 762 mmHg 46%
    20:00 +22°C° 0 mm 3 m/S 762 mmHg 47%
    21:00 +21°C° 0 mm 3 m/S 762 mmHg 47%
    22:00 +21°C° 0 mm 3 m/S 763 mmHg 46%
    23:00 +21°C° 0 mm 3 m/S 763 mmHg 44%

    19 Oktober, Freitag

    Zeit Temperatur Niederschläge Wind Luftdruck Luftfeuchtigkeit
    00:00 +21°C° 0 mm 4 m/S 763 mmHg 42%
    01:00 +21°C° 0 mm 4 m/S 763 mmHg 41%
    02:00 +20°C° 0 mm 4 m/S 763 mmHg 40%
    03:00 +20°C° 0 mm 4 m/S 763 mmHg 39%
    04:00 +20°C° 0 mm 4 m/S 763 mmHg 40%
    05:00 +20°C° 0 mm 4 m/S 763 mmHg 40%
    06:00 +20°C° 0 mm 4 m/S 763 mmHg 40%
    07:00 +22°C° 0 mm 4 m/S 763 mmHg 39%
    08:00 +25°C° 0 mm 4 m/S 763 mmHg 39%
    09:00 +26°C° 0 mm 4 m/S 763 mmHg 38%
    10:00 +28°C° 0 mm 4 m/S 762 mmHg 35%
    11:00 +29°C° 0 mm 3 m/S 762 mmHg 33%
    12:00 +31°C° 0 mm 3 m/S 762 mmHg 30%
    13:00 +31°C° 0 mm 2 m/S 762 mmHg 31%
    14:00 +31°C° 0 mm 2 m/S 761 mmHg 32%
    15:00 +31°C° 0 mm 1 m/S 761 mmHg 33%
    16:00 +29°C° 0 mm 1 m/S 761 mmHg 39%
    17:00 +26°C° 0 mm 1 m/S 762 mmHg 45%
    18:00 +24°C° 0 mm 1 m/S 762 mmHg 50%
    19:00 +24°C° 0 mm 2 m/S 762 mmHg 51%
    20:00 +23°C° 0 mm 2 m/S 762 mmHg 52%
    21:00 +21°C° 0 mm 2 m/S 763 mmHg 52%
    22:00 +21°C° 0 mm 2 m/S 763 mmHg 52%
    23:00 +21°C° 0 mm 2 m/S 763 mmHg 51%

    20 Oktober, Samstag

    Zeit Temperatur Niederschläge Wind Luftdruck Luftfeuchtigkeit
    00:00 +20°C° 0 mm 2 m/S 763 mmHg 51%
    01:00 +20°C° 0 mm 2 m/S 763 mmHg 50%
    02:00 +20°C° 0 mm 2 m/S 763 mmHg 49%
    03:00 +20°C° 0 mm 2 m/S 763 mmHg 49%
    04:00 +19°C° 0 mm 2 m/S 763 mmHg 48%
    05:00 +19°C° 0 mm 2 m/S 763 mmHg 48%
    06:00 +19°C° 0 mm 2 m/S 763 mmHg 47%
    07:00 +21°C° 0 mm 2 m/S 763 mmHg 45%
    08:00 +23°C° 0 mm 2 m/S 763 mmHg 44%
    09:00 +25°C° 0 mm 2 m/S 763 mmHg 42%
    10:00 +26°C° 0 mm 2 m/S 763 mmHg 41%
    11:00 +27°C° 0 mm 2 m/S 762 mmHg 40%
    12:00 +28°C° 0 mm 2 m/S 762 mmHg 39%
    13:00 +28°C° 0 mm 2 m/S 762 mmHg 43%
    14:00 +27°C° 0 mm 2 m/S 762 mmHg 47%
    15:00 +27°C° 0 mm 2 m/S 762 mmHg 51%
    16:00 +25°C° 0 mm 2 m/S 762 mmHg 60%
    17:00 +23°C° 0 mm 2 m/S 762 mmHg 69%
    18:00 +20°C° 0 mm 2 m/S 762 mmHg 78%
    19:00 +20°C° 0 mm 2 m/S 762 mmHg 79%
    20:00 +21°C° 0 mm 1 m/S 762 mmHg 81%
    21:00 +20°C° 0 mm 1 m/S 762 mmHg 82%
    22:00 +20°C° 0 mm 1 m/S 762 mmHg 81%
    23:00 +20°C° 0 mm 1 m/S 762 mmHg 80%

    21 Oktober, Sonntag

    Zeit Temperatur Niederschläge Wind Luftdruck Luftfeuchtigkeit
    00:00 +20°C° 0 mm 1 m/S 762 mmHg 79%
    01:00 +19°C° 0.1 mm 1 m/S 762 mmHg 77%
    02:00 +19°C° 0.1 mm 1 m/S 762 mmHg 76%
    03:00 +19°C° 0.1 mm 1 m/S 762 mmHg 75%
    04:00 +19°C° 0.2 mm 1 m/S 762 mmHg 74%
    05:00 +19°C° 0.2 mm 1 m/S 762 mmHg 73%
    06:00 +19°C° 0.2 mm 1 m/S 762 mmHg 71%
    07:00 +20°C° 0.4 mm 1 m/S 762 mmHg 67%
    08:00 +22°C° 0.4 mm 1 m/S 762 mmHg 63%
    09:00 +23°C° 0.4 mm 1 m/S 762 mmHg 59%
    10:00 +24°C° 0.4 mm 1 m/S 762 mmHg 57%
    11:00 +25°C° 0.4 mm 2 m/S 762 mmHg 54%
    12:00 +26°C° 0.4 mm 2 m/S 761 mmHg 52%
    13:00 +26°C° 0.3 mm 2 m/S 761 mmHg 55%
    14:00 +25°C° 0.3 mm 3 m/S 761 mmHg 58%
    15:00 +25°C° 0.3 mm 3 m/S 761 mmHg 61%
    16:00 +22°C° 1 mm 3 m/S 761 mmHg 70%
    17:00 +21°C° 1 mm 3 m/S 761 mmHg 79%
    18:00 +19°C° 1 mm 3 m/S 762 mmHg 88%
    19:00 +19°C° 1.4 mm 3 m/S 762 mmHg 88%
    20:00 +19°C° 1.4 mm 3 m/S 762 mmHg 89%
    21:00 +19°C° 1.4 mm 3 m/S 762 mmHg 89%
    22:00 +19°C° 1.2 mm 4 m/S 762 mmHg 90%
    23:00 +18°C° 1.2 mm 4 m/S 762 mmHg 90%
    Mehr zeigen